NOAA NWS Hourly Roundups by Site

Regional Weather Roundup for Omaha, NE

To Select Another Site Choose from List

Select Site:  

000
ASUS43 KOAX 140810
RWRNE

WEATHER ROUNDUP FOR NEBRASKA
NATIONAL WEATHER SERVICE OMAHA NE
300 AM CDT MON OCT 14 2019

NOTES: SATELLITE DATA IS BEING USED TO AUGMENT CLOUD COVER ABOVE
       12000 FEET.
       "FAIR" INDICATES FEW OR NO CLOUDS BELOW 12,000 FEET WITH NO
       SIGNIFICANT WEATHER AND/OR OBSTRUCTIONS TO VISIBILITY.


NEZ001>004-019>022-054>056-140900-
NEBRASKA PANHANDLE

CITY           SKY/WX    TMP DP  RH WIND       PRES   REMARKS
SCOTTSBLUFF    FAIR      35  26  69 N3        29.90F
ALLIANCE       FAIR      29  21  72 CALM      29.89F
CHADRON        FAIR      26  24  92 S3        29.86F
GORDON         FAIR      28  23  83 CALM      29.88F
KIMBALL        FAIR      33  19  55 W8        29.92F WCI  26
SIDNEY         FAIR      26  17  68 CALM      29.91F
$$

NEZ057>060-069>072-079>082-140900-
SOUTHWEST NEBRASKA

CITY           SKY/WX    TMP DP  RH WIND       PRES   REMARKS
NORTH PLATTE   FAIR      31  24  75 SE6       29.94F WCI  25
IMPERIAL       FAIR      36  21  54 SE5       29.93F WCI  32
LEXINGTON      FAIR      35  28  75 SE3       29.96S
MCCOOK         FAIR      38  26  62 E6        29.95S WCI  33
OGALLALA       FAIR      33  25  72 CALM      29.93S
$$

NEZ005>010-023>029-035>040-094-140900-
NORTH CENTRAL NEBRASKA

CITY           SKY/WX    TMP DP  RH WIND       PRES   REMARKS
VALENTINE      FAIR      28  20  71 CALM      29.93F
AINSWORTH      FAIR      31  24  74 S5        29.94F WCI  26
BROKEN BOW     FAIR      29  24  82 CALM      29.95F
O`NEILL        FAIR      32  29  89 CALM      29.98F
ORD            FAIR      26  23  88 CALM      29.97S
THEDFORD       FAIR      30  23  73 CALM      29.95S
$$

NEZ041-046>049-061>064-073>077-083>087-140900-
SOUTH CENTRAL NEBRASKA

CITY           SKY/WX    TMP DP  RH WIND       PRES   REMARKS
GRAND ISLAND   FAIR      34  28  79 E5        29.99F WCI  30
AURORA         FAIR      35  29  79 E7        29.99S WCI  29
HASTINGS       FAIR      45  27  49 E5        29.97F
HEBRON         FAIR      38  32  78 CALM      29.99F
HOLDREGE       FAIR      38  29  71 S3        29.97R
KEARNEY        FAIR      37  27  67 CALM      29.97S
YORK           FAIR      34  28  80 SE5       30.00F WCI  30
$$

NEZ011>018-030>034-042>045-140900-
NORTHEAST NEBRASKA

CITY           SKY/WX    TMP DP  RH WIND       PRES   REMARKS
NORFOLK        FAIR      30  24  78 CALM      30.02R
ALBION         FAIR      27  24  89 CALM      30.00S
BLAIR          FAIR      37  33  84 E3        30.02S
COLUMBUS       FAIR      28  25  88 CALM      30.03S
FREMONT        FAIR      34  32  94 CALM      30.04R
TEKAMAH        FAIR      30  29  96 NW5       30.05R WCI  25
WAYNE          FAIR      25  23  91 CALM      30.03R
$$

NEZ050>053-065>068-078-088>093-140900-
SOUTHEAST NEBRASKA

CITY           SKY/WX    TMP DP  RH WIND       PRES   REMARKS
LINCOLN        FAIR      31  27  85 N5        30.04S WCI  26
OMAHA EPPLEY   FAIR      39  33  79 CALM      30.04R
BEATRICE       FAIR      35  32  88 CALM      30.01F
FALLS CITY     FAIR      35  31  85 CALM      30.01S
NEBRASKA CITY  FAIR      38  36  91 NE5       30.03S WCI  34
PLATTSMOUTH    FAIR      38  35  87 E6        30.03S WCI  34
$$

NEZ044-045-051>053-067-140900-
OMAHA AREA

CITY           SKY/WX    TMP DP  RH WIND       PRES   REMARKS
OMAHA EPPLEY   FAIR      39  33  79 CALM      30.04R
BLAIR          FAIR      37  33  84 E3        30.02S
FREMONT        FAIR      34  32  94 CALM      30.04R
MILLARD        FAIR      35  34  95 CALM      30.04R
OFFUTT AFB     CLEAR     41  32  70 NE3       30.07R
PLATTSMOUTH    FAIR      38  35  87 E6        30.03S WCI  34
WAHOO          PTSUNNY   31  29  94 N3        30.04R
$$


 

View Past Reports for Omaha, NE.

Products Courtesy of NOAA-NWS
NWS Information Parsing Script by Ken True at Saratoga Weather - Script by SE Lincoln Weather.